Location: ??????
(55.6500°N, 37.8000°E)
Time: 08:49:46
(UTC+00:00)

Cosmos 2112 Rocket - Visible Passes

Search period start: 25 April 2025 00:00
Search period end: 05 May 2025 00:00
Orbit: 753 x 784 km, 74.0° (Epoch: 24 April)

Date Brightness Start Highest point End Pass type
(mag) Time Alt. Az. Time Alt. Az. Time Alt. Az.
26 Apr 6.7 00:56:51 10° SE 00:59:46 15° E 01:02:40 10° ENE visible
29 Apr 6.3 00:46:24 10° SSE 00:50:23 22° E 00:54:24 10° NE visible
30 Apr 6.6 00:10:55 10° SE 00:13:44 15° E 00:16:33 10° ENE visible
02 May 5.6 00:36:27 10° SSE 00:41:07 32° ESE 00:45:46 10° NE visible
03 May 6.1 00:00:24 10° SE 00:04:21 22° E 00:08:18 10° NE visible
03 May 6.5 23:24:58 10° ESE 23:27:41 14° E 23:30:23 10° ENE visible
